Hourly Data Report for October 04, 2020

SHEARWATER RCS
NOVA SCOTIA
Current Station Operator: ECCC - MSC

44°37'47.000" N
63°30'48.000" W
24.00 m
8205092
71264
AAW

Download Data

Hourly Data (October 2020)
Hourly Data Report for October 4, 2020
TIME Temp Definition
°C
Dew Point Definition
°C
Rel Hum Definition
%
Wind Dir Definition
10's deg

Wind Spd Definition
km/h
Visibility Definition
km
Stn Press Definition
kPa
Hmdx Definition


Wind Chill Definition


Weather Definition


00:00 10.9 8.2 84 33 12   101.87     LegendNANA
01:00 9.9 8.0 88 31 7   101.91     LegendNANA
02:00 10.9 8.6 86 33 8   101.91     LegendNANA
03:00 11.1 8.7 85 32 8   101.93     LegendNANA
04:00 10.8 8.6 86 31 10   102.02     LegendNANA
05:00 10.3 8.4 88 32 10   102.08     LegendNANA
06:00 9.3 7.9 91 32 6   102.12     LegendNANA
07:00 9.5 8.0 91 33 9   102.21     LegendNANA
08:00 11.9 8.8 81 33 8   102.25     LegendNANA
09:00 13.4 8.4 72 34 7   102.31     LegendNANA
10:00 15.2 9.1 67 31 4   102.31     LegendNANA
11:00 15.6 7.4 58 25 8   102.31     LegendNANA
12:00 16.9 6.0 48 24 8   102.26     LegendNANA
13:00 16.8 5.9 49 24 8   102.23     LegendNANA
14:00 15.0 8.0 63 19 13   102.21     LegendNANA
15:00 16.9 8.1 56 16 13   102.20     LegendNANA
16:00 16.5 6.0 50 21 7   102.15     LegendNANA
17:00 15.2 7.1 58 18 11   102.19     LegendNANA
18:00 13.3 7.2 67 23 5   102.20     LegendNANA
19:00 11.6 7.6 76 0 1   102.18     LegendNANA
20:00 11.3 8.4 82 23 4   102.27     LegendNANA
21:00 11.6 8.1 79 28 1   102.19     LegendNANA
22:00 10.8 8.1 84 0 1   102.19     LegendNANA
23:00 11.1 8.5 84 3 2   102.18     LegendNANA

Notes on Data Quality.

Legend

  • E = Estimated
  • M = Missing
  • NA = Not Available*
  • [empty] = Indicates an unobserved value
Date modified: